Home   Weather   Sibiu   Past weeks

Flag for Romania Past Weather in Sibiu, Romania — Yesterday and Last 2 Weeks

Now
21 °F

Sunny.


Feels Like: 16 °F
Forecast: 5 / 25 °F
Wind: 3 mph from West

Location: Sibiu Airport

Current Time: Jan 19, 2017 at 1:03:02 pm

Latest Report: Jan 19, 2017 at 12:00 pm


Visibility: 10 mi

Pressure: 30.54 "Hg

Humidity: 58%

Dew Point: 9 °F

Location of SibiuLocation

Past Weather in Sibiu — Graph

°F

Sibiu Temperature Yesterday

Maximum temperature yesterday: 30 °F (at 3:00 pm)
Minimum temperature yesterday: 10 °F (at 9:30 pm)
Average temperature yesterday: 20 °F

High & Low Weather Summary for the Past Weeks

 TemperatureHumidityPressure
High46 °F (Jan 13, 11:00 pm)100% (Jan 5, 10:00 pm)30.54 "Hg (Jan 5, 10:00 pm)
Low-20 °F (Jan 10, 6:30 am)47% (Jan 18, 1:30 pm)29.30 "Hg (Jan 14, 5:00 am)
Average17 °F80%30.01 "Hg
* Reported Jan 4 11:00 am — Jan 19 11:30 am, Sibiu, Weather by CustomWeather, © 2017

Note: Actual official high and low records may vary slightly from our data, if they occured in-between our weather recording intervals... More about our weather records

Advertising

Sibiu Weather History for the Previous 24 Hours

Scroll right to see more
 ConditionsComfort  
Time TempWeatherWind HumidityBarometerVisibility
11:30 am
Thu, Jan 19
21 °FSunny.1 mph58%30.54 "Hg10 mi
11:00 am19 °FSunny.No wind63%30.54 "Hg10 mi
10:30 am18 °FSunny.2 mph68%30.54 "Hg10 mi
10:00 am18 °FSunny.1 mph68%30.54 "Hg10 mi
9:30 am12 °FSunny.3 mph79%30.54 "Hg10 mi
9:00 am7 °FSunny.1 mph92%30.54 "Hg10 mi
8:30 am7 °FPassing clouds.No wind85%30.51 "Hg4 mi
8:00 am7 °FSunny.1 mph85%30.51 "Hg10 mi
7:30 am7 °FClear.1 mph85%30.51 "Hg10 mi
7:00 am9 °FClear.2 mph85%30.51 "Hg10 mi
6:30 am10 °FClear.3 mph85%30.48 "Hg10 mi
6:00 am12 °FClear.No wind79%30.48 "Hg10 mi
5:30 am10 °FClear.1 mph85%30.51 "Hg10 mi
5:00 am12 °FClear.No wind79%30.51 "Hg10 mi
4:30 am10 °FClear.2 mph85%30.51 "Hg10 mi
4:00 am10 °FClear.No wind85%30.51 "Hg10 mi
3:30 am12 °FClear.1 mph79%30.51 "Hg10 mi
3:00 am10 °FClear.2 mph79%30.51 "Hg10 mi
2:30 am10 °FClear.1 mph85%30.48 "Hg10 mi
2:00 am7 °FClear.2 mph78%30.48 "Hg10 mi
1:30 am7 °FClear.2 mph92%30.48 "Hg10 mi
1:00 am5 °FClear.1 mph85%30.48 "Hg10 mi
12:30 am10 °FClear.No wind79%30.48 "Hg10 mi
12:00 am12 °FClear.2 mph73%30.48 "Hg10 mi
11:30 pm
Wed, Jan 18
12 °FClear.7 mph79%30.48 "Hg10 mi
11:00 pm10 °FClear.6 mph79%30.51 "Hg10 mi
10:30 pm10 °FClear.3 mph72%30.51 "Hg10 mi
10:00 pm12 °FClear.1 mph79%30.51 "Hg10 mi
9:30 pm10 °FClear.2 mph79%30.48 "Hg10 mi
9:00 pm16 °FClear.No wind73%30.48 "Hg10 mi
8:30 pm14 °FClear.1 mph73%30.48 "Hg10 mi
8:00 pm18 °FClear.3 mph68%30.48 "Hg10 mi
7:30 pm14 °FClear.3 mph73%30.48 "Hg10 mi
7:00 pm14 °FClear.6 mph73%30.48 "Hg10 mi
6:30 pm18 °FClear.2 mph68%30.48 "Hg10 mi
6:00 pm19 °FClear.3 mph58%30.48 "Hg10 mi
5:30 pm27 °FClear.3 mph50%30.45 "Hg10 mi
5:00 pm27 °FSunny.3 mph50%30.45 "Hg10 mi
4:30 pm28 °FSunny.7 mph47%30.45 "Hg10 mi
4:00 pm28 °FSunny.8 mph51%30.45 "Hg10 mi
3:30 pm30 °FSunny.8 mph47%30.45 "Hg10 mi
3:00 pm30 °FSunny.8 mph47%30.45 "Hg10 mi
2:30 pm28 °FSunny.9 mph51%30.45 "Hg10 mi
2:00 pm28 °FSunny.9 mph51%30.42 "Hg10 mi
1:30 pm28 °FSunny.9 mph47%30.42 "Hg10 mi
1:00 pm27 °FPassing clouds.6 mph54%30.45 "HgN/A
Weather by CustomWeather, © 2017

See weather overviewHow to use our weather pages